| time (UTC) | temp F | wind direction | speed knots | gust knots | rain 1hr in | rain 24hr in | rain mn in | humidity % | barometer mb |
| 20260505004120 | 70 | 186 | 4.3 | 6.1 | 0.00 | 0.00 | 0.00 | 54 | 1004.1 |
| 20260505002320 | 72 | 200 | 7.8 | 8.7 | 0.00 | 0.00 | 0.00 | 51 | 1004.0 |
| 20260505001421 | 72 | 181 | 6.1 | 8.7 | 0.00 | 0.00 | 0.00 | 51 | 1004.0 |
| 20260505000521 | 72 | 170 | 6.1 | 7.8 | 0.00 | 0.00 | 0.00 | 51 | 1004.2 |
| 20260504235621 | 72 | 224 | 7.0 | 12.2 | 0.00 | 0.00 | 0.00 | 50 | 1004.3 |
| 20260504234722 | 73 | 209 | 5.2 | 4.3 | 0.00 | 0.00 | 0.00 | 50 | 1004.3 |
| 20260504233820 | 72 | 207 | 5.2 | 8.7 | 0.00 | 0.00 | 0.00 | 50 | 1004.4 |
| 20260504232924 | 72 | 170 | 5.2 | 7.8 | 0.00 | 0.00 | 0.00 | 52 | 1004.6 |
| 20260504232023 | 71 | 179 | 5.2 | 10.4 | 0.00 | 0.00 | 0.00 | 55 | 1004.7 |
| 20260504231122 | 71 | 161 | 4.3 | 6.1 | 0.00 | 0.00 | 0.00 | 55 | 1004.9 |
| 20260504230221 | 71 | 190 | 5.2 | 7.8 | 0.00 | 0.00 | 0.00 | 54 | 1005.2 |
| 20260504225321 | 71 | 193 | 5.2 | 7.0 | 0.00 | 0.00 | 0.00 | 55 | 1005.1 |
| 20260504224422 | 71 | 166 | 7.0 | 10.4 | 0.00 | 0.00 | 0.00 | 55 | 1005.1 |
| 20260504223521 | 71 | 173 | 5.2 | 8.7 | 0.00 | 0.00 | 0.00 | 55 | 1005.0 |
| 20260504222621 | 71 | 142 | 6.1 | 6.1 | 0.00 | 0.00 | 0.00 | 54 | 1005.3 |
| 20260504221721 | 70 | 169 | 4.3 | 6.1 | 0.00 | 0.00 | 0.00 | 57 | 1005.4 |
| 20260504220822 | 69 | 186 | 2.6 | 4.3 | 0.00 | 0.00 | 0.00 | 59 | 1005.4 |
| 20260504215920 | 69 | 206 | 5.2 | 7.0 | 0.00 | 0.00 | 0.00 | 60 | 1005.5 |
| 20260504215022 | 69 | 194 | 6.1 | 7.8 | 0.00 | 0.00 | 0.00 | 60 | 1005.5 |
| 20260504214120 | 68 | 157 | 4.3 | 7.8 | 0.00 | 0.00 | 0.00 | 62 | 1005.4 |
| 20260504213221 | 68 | 193 | 6.1 | 8.7 | 0.00 | 0.00 | 0.00 | 63 | 1005.8 |
| 20260504212321 | 67 | 153 | 6.1 | 10.4 | 0.00 | 0.00 | 0.00 | 64 | 1005.7 |
| 20260504211421 | 66 | 146 | 5.2 | 7.0 | 0.00 | 0.00 | 0.00 | 67 | 1005.8 |
| 20260504210521 | 66 | 162 | 2.6 | 4.3 | 0.00 | 0.00 | 0.00 | 67 | 1005.9 |
| 20260504205621 | 66 | 163 | 4.3 | 5.2 | 0.00 | 0.00 | 0.00 | 66 | 1005.9 |
| 20260504204721 | 67 | 217 | 6.1 | 7.8 | 0.00 | 0.00 | 0.00 | 62 | 1006.5 |
| 20260504203822 | 68 | 219 | 5.2 | 7.8 | 0.00 | 0.00 | 0.00 | 59 | 1006.4 |
| 20260504202920 | 67 | 247 | 6.1 | 11.3 | 0.00 | 0.00 | 0.00 | 59 | 1005.8 |
| 20260504202020 | 68 | 272 | 7.8 | 17.4 | 0.00 | 0.00 | 0.00 | 58 | 1006.4 |
| 20260504201122 | 70 | 283 | 6.1 | 12.2 | 0.00 | 0.00 | 0.00 | 56 | 1006.4 |
| 20260504200220 | 69 | 260 | 4.3 | 7.0 | 0.00 | 0.00 | 0.00 | 55 | 1006.3 |
| 20260504195320 | 68 | 256 | 7.0 | 7.8 | 0.00 | 0.00 | 0.00 | 55 | 1006.8 |
| 20260504194422 | 68 | 271 | 6.1 | 12.2 | 0.00 | 0.00 | 0.00 | 58 | 1007.3 |
| 20260504193521 | 69 | 254 | 7.8 | 17.4 | 0.00 | 0.00 | 0.00 | 60 | 1007.4 |
| 20260504192621 | 69 | 252 | 7.0 | 7.0 | 0.00 | 0.00 | 0.00 | 60 | 1007.4 |
| 20260504191722 | 69 | 228 | 7.8 | 11.3 | 0.00 | 0.00 | 0.00 | 61 | 1007.4 |
| 20260504190820 | 69 | 202 | 7.8 | 13.9 | 0.00 | 0.00 | 0.00 | 60 | 1007.6 |
| 20260504185920 | 69 | 195 | 7.0 | 17.4 | 0.00 | 0.00 | 0.00 | 60 | 1007.6 |
| 20260504185020 | 69 | 214 | 7.8 | 13.9 | 0.00 | 0.00 | 0.00 | 59 | 1007.4 |
| 20260504184217 | 69 | 222 | 7.0 | 8.7 | 0.00 | 0.00 | 0.00 | 60 | 1007.2 |
| 20260504182321 | 69 | 193 | 8.7 | 13.0 | 0.00 | 0.00 | 0.00 | 61 | 1007.5 |
| 20260504181420 | 69 | 180 | 10.4 | 18.2 | 0.00 | 0.00 | 0.00 | 61 | 1007.3 |
| 20260504180521 | 69 | 212 | 5.2 | 7.0 | 0.00 | 0.00 | 0.00 | 62 | 1007.6 |
| 20260504175619 | 69 | 221 | 7.0 | 10.4 | 0.00 | 0.00 | 0.00 | 61 | 1007.6 |
| 20260504174721 | 69 | 211 | 7.8 | 17.4 | 0.00 | 0.00 | 0.00 | 60 | 1007.7 |
| 20260504173820 | 69 | 242 | 7.8 | 13.9 | 0.00 | 0.00 | 0.00 | 60 | 1007.5 |
| 20260504172920 | 70 | 209 | 10.4 | 17.4 | 0.00 | 0.00 | 0.00 | 59 | 1007.4 |
| 20260504172021 | 70 | 259 | 7.0 | 12.2 | 0.00 | 0.00 | 0.00 | 61 | 1007.4 |
| 20260504171120 | 69 | 218 | 8.7 | 13.9 | 0.00 | 0.00 | 0.00 | 59 | 1007.2 |
| 20260504170223 | 70 | 207 | 7.8 | 11.3 | 0.00 | 0.00 | 0.00 | 59 | 1007.6 |
| 20260504150521 | 65 | 258 | 4.3 | 7.8 | 0.00 | 0.00 | 0.00 | 66 | 1008.2 |
| 20260504141121 | 61 | 215 | 2.6 | 6.1 | 0.00 | 0.00 | 0.00 | 70 | 1008.6 |
| 20260504140220 | 61 | 212 | 4.3 | 4.3 | 0.00 | 0.00 | 0.00 | 69 | 1008.8 |
| 20260504130819 | 57 | 183 | 4.3 | 7.8 | 0.00 | 0.00 | 0.00 | 72 | 1008.7 |
| 20260504110221 | 51 | 153 | 2.6 | 2.6 | 0.00 | 0.00 | 0.00 | 71 | 1009.1 |
| 20260504081121 | 52 | 153 | 4.3 | 4.3 | 0.00 | 0.00 | 0.00 | 68 | 1010.2 |
| 20260504080220 | 51 | 141 | 2.6 | 5.2 | 0.00 | 0.00 | 0.00 | 68 | 1010.4 |
| 20260504050221 | 53 | 142 | 4.3 | 7.0 | 0.00 | 0.00 | 0.00 | 64 | 1012.0 |
| 20260504045320 | 53 | 136 | 2.6 | 6.1 | 0.00 | 0.00 | 0.00 | 64 | 1012.0 |
| 20260504044421 | 53 | 158 | 5.2 | 6.1 | 0.00 | 0.00 | 0.00 | 64 | 1012.0 |
| 20260504043520 | 53 | 159 | 2.6 | 4.3 | 0.00 | 0.00 | 0.00 | 64 | 1012.1 |
| 20260504042620 | 53 | 138 | 1.7 | 4.3 | 0.00 | 0.00 | 0.00 | 63 | 1012.2 |
| 20260504041720 | 53 | 173 | 5.2 | 10.4 | 0.00 | 0.00 | 0.00 | 63 | 1012.3 |
| 20260504040819 | 54 | 130 | 1.7 | 2.6 | 0.00 | 0.00 | 0.00 | 64 | 1012.4 |
| 20260504035920 | 54 | 147 | 4.3 | 6.1 | 0.00 | 0.00 | 0.00 | 63 | 1012.5 |
| 20260504035022 | 54 | 132 | 2.6 | 4.3 | 0.00 | 0.00 | 0.00 | 62 | 1012.6 |
| 20260504034120 | 54 | 168 | 0.9 | 2.6 | 0.00 | 0.00 | 0.00 | 62 | 1012.7 |
| 20260504033220 | 55 | 133 | 2.6 | 5.2 | 0.00 | 0.00 | 0.00 | 61 | 1012.8 |
| 20260504032320 | 55 | 164 | 2.6 | 4.3 | 0.00 | 0.00 | 0.00 | 61 | 1012.9 |
| 20260504031420 | 55 | 144 | 5.2 | 7.0 | 0.00 | 0.00 | 0.00 | 60 | 1012.9 |
| 20260504030520 | 55 | 140 | 4.3 | 5.2 | 0.00 | 0.00 | 0.00 | 60 | 1012.8 |
| 20260504025620 | 55 | 145 | 2.6 | 4.3 | 0.00 | 0.00 | 0.00 | 59 | 1013.0 |
| 20260504024719 | 55 | 168 | 2.6 | 7.8 | 0.00 | 0.00 | 0.00 | 59 | 1013.0 |
| 20260504023821 | 55 | 152 | 2.6 | 2.6 | 0.00 | 0.00 | 0.00 | 58 | 1013.1 |
| 20260504022921 | 56 | 156 | 2.6 | 5.2 | 0.00 | 0.00 | 0.00 | 57 | 1013.2 |
| 20260504022027 | 56 | 161 | 1.7 | 4.3 | 0.00 | 0.00 | 0.00 | 57 | 1013.2 |
| 20260504022020 | 56 | 161 | 1.7 | 4.3 | 0.00 | 0.00 | 0.00 | 57 | 1013.2 |
| 20260504021119 | 56 | 155 | 1.7 | 2.6 | 0.00 | 0.00 | 0.00 | 55 | 1013.3 |
| 20260504020219 | 56 | 135 | 1.7 | 2.6 | 0.00 | 0.00 | 0.00 | 55 | 1013.3 |
| 20260504015319 | 56 | 157 | 0.9 | 2.6 | 0.00 | 0.00 | 0.00 | 55 | 1013.2 |
| 20260504014420 | 56 | 149 | 5.2 | 5.2 | 0.00 | 0.00 | 0.00 | 54 | 1013.3 |
| 20260504013519 | 56 | 164 | 2.6 | 6.1 | 0.00 | 0.00 | 0.00 | 53 | 1013.3 |
| 20260504012620 | 56 | 187 | 1.7 | 2.6 | 0.00 | 0.00 | 0.00 | 53 | 1013.2 |
| 20260504011720 | 56 | 162 | 2.6 | 6.1 | 0.00 | 0.00 | 0.00 | 53 | 1013.4 |
| 20260504010819 | 56 | 157 | 1.7 | 2.6 | 0.00 | 0.00 | 0.00 | 53 | 1013.3 |
| 20260504005920 | 56 | 160 | 1.7 | 2.6 | 0.00 | 0.00 | 0.00 | 53 | 1013.2 |
| 20260504005019 | 57 | 160 | 0.9 | 2.6 | 0.00 | 0.00 | 0.00 | 53 | 1013.3 |